TimeMST,TemperatureF,Dew PointF,Humidity,Sea Level PressureIn,VisibilityMPH,Wind Direction,Wind SpeedMPH,Gust SpeedMPH,PrecipitationIn,Events,Conditions,WindDirDegrees,DateUTC
12:16 AM,-9.4,-14.8,77,30.19,-9999.0,Calm,Calm,-,N/A,,Overcast,0,2013-01-10 07:16:00
12:36 AM,-9.4,-14.8,77,30.18,-9999.0,Calm,Calm,-,N/A,,Overcast,0,2013-01-10 07:36:00
12:56 AM,-9.4,-14.8,77,30.16,-9999.0,Calm,Calm,-,N/A,,Overcast,0,2013-01-10 07:56:00
1:15 AM,-9.4,-16.6,71,30.16,-9999.0,Calm,Calm,-,N/A,,Overcast,0,2013-01-10 08:15:00
1:36 AM,-9.4,-16.6,71,30.16,-9999.0,Calm,Calm,-,N/A,Snow,Light Snow,0,2013-01-10 08:36:00
1:56 AM,-9.4,-14.8,77,30.16,-9999.0,Calm,Calm,-,N/A,,Overcast,0,2013-01-10 08:56:00
2:15 AM,-9.4,-14.8,77,30.14,-9999.0,Calm,Calm,-,N/A,,Overcast,0,2013-01-10 09:15:00
2:35 AM,-9.4,-16.6,71,30.14,-9999.0,Calm,Calm,-,N/A,,Overcast,0,2013-01-10 09:35:00
2:56 AM,-9.4,-14.8,77,30.12,-9999.0,Calm,Calm,-,N/A,,Overcast,0,2013-01-10 09:56:00
3:16 AM,-9.4,-14.8,77,30.12,-9999.0,Calm,Calm,-,N/A,,Overcast,0,2013-01-10 10:16:00
3:36 AM,-9.4,-14.8,77,30.10,-9999.0,Calm,Calm,-,N/A,,Overcast,0,2013-01-10 10:36:00
3:55 AM,-9.4,-14.8,77,30.09,-9999.0,Calm,Calm,-,N/A,,Overcast,0,2013-01-10 10:55:00
4:16 AM,-9.4,-14.8,77,30.08,-9999.0,Calm,Calm,-,N/A,,Overcast,0,2013-01-10 11:16:00
4:36 AM,-9.4,-14.8,77,30.08,-9999.0,Calm,Calm,-,N/A,,Overcast,0,2013-01-10 11:36:00
4:56 AM,-7.6,-14.8,71,30.07,-9999.0,Calm,Calm,-,N/A,,Overcast,0,2013-01-10 11:56:00
5:35 AM,-7.6,-13.0,77,30.06,-9999.0,Calm,Calm,-,N/A,,Overcast,0,2013-01-10 12:35:00
5:56 AM,-7.6,-13.0,77,30.04,-9999.0,Calm,Calm,-,N/A,,Overcast,0,2013-01-10 12:56:00
6:16 AM,-7.6,-13.0,77,30.04,-9999.0,Calm,Calm,-,N/A,Snow,Light Snow,0,2013-01-10 13:16:00
6:56 AM,-7.6,-13.0,77,30.02,-9999.0,Calm,Calm,-,N/A,,Overcast,0,2013-01-10 13:56:00
7:16 AM,-7.6,-13.0,77,30.02,-9999.0,Calm,Calm,-,N/A,,Overcast,0,2013-01-10 14:16:00
7:36 AM,-7.6,-13.0,77,30.01,-9999.0,Calm,Calm,-,N/A,,Overcast,0,2013-01-10 14:36:00
7:56 AM,-7.6,-13.0,77,30.01,-9999.0,Calm,Calm,-,N/A,,Overcast,0,2013-01-10 14:56:00
8:15 AM,-5.8,-9.4,84,30.01,-9999.0,Calm,Calm,-,N/A,Snow,Light Snow,0,2013-01-10 15:15:00
8:35 AM,-5.8,-9.4,84,30.01,-9999.0,Calm,Calm,-,N/A,Snow,Light Snow,0,2013-01-10 15:35:00
8:55 AM,-5.8,-9.4,84,30.01,-9999.0,Calm,Calm,-,N/A,Snow,Light Snow,0,2013-01-10 15:55:00
9:16 AM,-2.2,-7.6,78,30.00,-9999.0,Calm,Calm,-,N/A,Snow,Light Snow,0,2013-01-10 16:16:00
9:36 AM,-2.2,-7.6,78,29.99,-9999.0,Calm,Calm,-,N/A,,Overcast,0,2013-01-10 16:36:00
9:56 AM,-0.4,-7.6,72,29.98,-9999.0,Calm,Calm,-,N/A,Snow,Light Snow,0,2013-01-10 16:56:00
10:16 AM,-0.4,-5.8,78,29.97,-9999.0,Calm,Calm,-,N/A,,Overcast,0,2013-01-10 17:16:00
10:36 AM,-0.4,-5.8,78,29.96,-9999.0,Calm,Calm,-,N/A,Snow,Light Snow,0,2013-01-10 17:36:00
10:56 AM,1.4,-4.0,78,29.96,-9999.0,Calm,Calm,-,N/A,Snow,Light Snow,0,2013-01-10 17:56:00
11:16 AM,3.2,-0.4,85,29.94,-9999.0,Calm,Calm,-,N/A,Snow,Light Snow,0,2013-01-10 18:16:00
11:36 AM,3.2,-0.4,85,29.92,-9999.0,Calm,Calm,-,N/A,Snow,Light Snow,0,2013-01-10 18:36:00
11:56 AM,5.0,-0.4,78,29.90,-9999.0,Calm,Calm,-,N/A,Snow,Light Snow,0,2013-01-10 18:56:00
12:35 PM,8.6,1.4,73,29.86,-9999.0,Calm,Calm,-,N/A,Snow,Light Snow,0,2013-01-10 19:35:00
12:55 PM,8.6,1.4,73,29.84,-9999.0,Calm,Calm,-,N/A,Snow,Light Snow,0,2013-01-10 19:55:00
1:16 PM,10.4,3.2,73,29.83,-9999.0,Calm,Calm,-,N/A,Snow,Light Snow,0,2013-01-10 20:16:00
1:36 PM,12.2,3.2,67,29.82,-9999.0,Calm,Calm,-,N/A,,Clear,0,2013-01-10 20:36:00
1:56 PM,10.4,1.4,67,29.80,-9999.0,Calm,Calm,-,N/A,,Clear,0,2013-01-10 20:56:00
2:16 PM,10.4,1.4,67,29.79,-9999.0,Calm,Calm,-,N/A,,Clear,0,2013-01-10 21:16:00
2:36 PM,12.2,1.4,62,29.78,-9999.0,Calm,Calm,-,N/A,,Clear,0,2013-01-10 21:36:00
2:56 PM,12.2,-0.4,57,29.78,-9999.0,Calm,Calm,-,N/A,,Clear,0,2013-01-10 21:56:00
3:16 PM,10.4,1.4,67,29.77,-9999.0,SW,3.5,-,N/A,,Clear,230,2013-01-10 22:16:00
3:36 PM,8.6,-0.4,67,29.77,-9999.0,Calm,Calm,-,N/A,,Clear,0,2013-01-10 22:36:00
3:56 PM,6.8,-0.4,72,29.75,-9999.0,Calm,Calm,-,N/A,,Clear,0,2013-01-10 22:56:00
4:16 PM,5.0,-2.2,72,29.74,-9999.0,Calm,Calm,-,N/A,,Clear,0,2013-01-10 23:16:00
4:36 PM,5.0,-2.2,72,29.73,-9999.0,Calm,Calm,-,N/A,,Clear,0,2013-01-10 23:36:00
4:56 PM,3.2,-0.4,85,29.72,-9999.0,Calm,Calm,-,N/A,,Clear,0,2013-01-10 23:56:00
5:16 PM,3.2,-2.2,78,29.72,-9999.0,Calm,Calm,-,N/A,,Clear,0,2013-01-11 00:16:00
5:36 PM,1.4,-4.0,78,29.71,-9999.0,Calm,Calm,-,N/A,,Clear,0,2013-01-11 00:36:00
5:56 PM,3.2,-2.2,78,29.71,-9999.0,Calm,Calm,-,N/A,,Clear,0,2013-01-11 00:56:00
6:16 PM,1.4,-4.0,78,29.69,-9999.0,Calm,Calm,-,N/A,,Clear,0,2013-01-11 01:16:00
6:36 PM,1.4,-5.8,72,29.68,-9999.0,East,4.6,-,N/A,,Clear,90,2013-01-11 01:36:00
6:56 PM,-0.4,-5.8,78,29.68,-9999.0,Calm,Calm,-,N/A,,Clear,0,2013-01-11 01:56:00
7:16 PM,-0.4,-5.8,78,29.67,-9999.0,Calm,Calm,-,N/A,,Clear,0,2013-01-11 02:16:00
7:36 PM,-0.4,-4.0,85,29.67,-9999.0,Calm,Calm,-,N/A,,Unknown,0,2013-01-11 02:36:00
7:56 PM,-0.4,-5.8,78,29.65,-9999.0,Calm,Calm,-,N/A,,Clear,0,2013-01-11 02:56:00
8:16 PM,-0.4,-5.8,78,29.65,-9999.0,Calm,Calm,-,N/A,,Unknown,0,2013-01-11 03:16:00
8:36 PM,-0.4,-5.8,78,29.64,-9999.0,Calm,Calm,-,N/A,,Scattered Clouds,0,2013-01-11 03:36:00
8:56 PM,-2.2,-5.8,85,29.63,-9999.0,Calm,Calm,-,N/A,,Unknown,0,2013-01-11 03:56:00
9:16 PM,-2.2,-7.6,78,29.62,-9999.0,Calm,Calm,-,N/A,,Clear,0,2013-01-11 04:16:00
9:36 PM,-2.2,-7.6,78,29.61,-9999.0,Calm,Calm,-,N/A,,Clear,0,2013-01-11 04:36:00
9:56 PM,-5.8,-9.4,84,29.60,-9999.0,Calm,Calm,-,N/A,,Clear,0,2013-01-11 04:56:00
10:15 PM,-4.0,-9.4,78,29.61,-9999.0,Calm,Calm,-,N/A,,Clear,0,2013-01-11 05:15:00
10:36 PM,-5.8,-9.4,84,29.59,-9999.0,Calm,Calm,-,N/A,,Clear,0,2013-01-11 05:36:00
10:56 PM,-5.8,-9.4,84,29.59,-9999.0,Calm,Calm,-,N/A,,Clear,0,2013-01-11 05:56:00
11:16 PM,-5.8,-9.4,84,29.59,-9999.0,Calm,Calm,-,N/A,,Mostly Cloudy,0,2013-01-11 06:16:00
11:36 PM,-5.8,-9.4,84,29.57,-9999.0,Calm,Calm,-,N/A,,Scattered Clouds,0,2013-01-11 06:36:00
11:56 PM,-5.8,-9.4,84,29.55,-9999.0,Calm,Calm,-,N/A,,Scattered Clouds,0,2013-01-11 06:56:00